Location: SE Lincoln, NE
(40.7805°N, 96.6275°W)
Time: 04:48:16
(UTC-05:00)

Cosmos 1812 - Pass Details

Date: 15 May 2021
Orbit: 514 x 521 km, 82.5° (Epoch: 20 June)

Event Time Altitude Azimuth Distance (km) Brightness Sun altitude
Exits shadow 21:07:07 - 141° (SE) 2,106 5.2 -5.7°
Reaches altitude 10° 21:08:15 10° 131° (SE) 1,754 4.7 -5.9°
Maximum altitude 21:10:53 18° 88° (E) 1,334 4.3 -6.4°
Drops below altitude 10° 21:13:32 10° 44° (NE) 1,764 5.3 -6.8°
Sets 21:16:11 0° 26° (NNE) 2,657 6.4 -7.2°
